owner,sensor,date,latitude,longitude,vertical_datum,direction_of_sea_water_velocity,sea_water_speed,upward_sea_water_velocity,qcFlag 
WAVCIS,ioos:station:WAVCIS:CSI16:1,2009-07-01T00:00:00Z,29.4012,-89.0355,10.86,299.0,0.141,-99999.0,'11133222,11111222,99999999' 
WAVCIS,ioos:station:WAVCIS:CSI16:1,2009-07-01T01:00:00Z,29.4012,-89.0355,11.36,300.0,0.099,-99999.0,'11133222,11111222,99999999' 
WAVCIS,ioos:station:WAVCIS:CSI16:1,2009-07-01T02:00:00Z,29.4012,-89.0355,11.36,322.0,0.067,-99999.0,'11133222,11111222,99999999' 
WAVCIS,ioos:station:WAVCIS:CSI16:1,2009-07-01T03:00:00Z,29.4012,-89.0355,11.36,314.0,0.127,-99999.0,'11133222,11111222,99999999' 
WAVCIS,ioos:station:WAVCIS:CSI16:1,2009-07-01T04:00:00Z,29.4012,-89.0355,11.36,36.0,0.082,-99999.0,'11133222,11111222,99999999' 
WAVCIS,ioos:station:WAVCIS:CSI16:1,2009-07-01T05:00:00Z,29.4012,-89.0355,11.36,26.0,0.041,-99999.0,'11133222,11111222,99999999' 
WAVCIS,ioos:station:WAVCIS:CSI16:1,2009-07-01T06:00:00Z,29.4012,-89.0355,11.36,238.0,0.057,-99999.0,'11133222,11111222,99999999' 
WAVCIS,ioos:station:WAVCIS:CSI16:1,2009-07-01T07:00:00Z,29.4012,-89.0355,11.36,159.0,0.053,-99999.0,'11133222,11111222,99999999' 
WAVCIS,ioos:station:WAVCIS:CSI16:1,2009-07-01T08:00:00Z,29.4012,-89.0355,11.36,186.0,0.049,-99999.0,'11133222,11111222,99999999' 
WAVCIS,ioos:station:WAVCIS:CSI16:1,2009-07-01T09:00:00Z,29.4012,-89.0355,11.36,5.0,0.042,-99999.0,'11133222,11111222,99999999' 
WAVCIS,ioos:station:WAVCIS:CSI16:1,2009-07-01T10:00:00Z,29.4012,-89.0355,11.36,254.0,0.026,-99999.0,'11133222,11111222,99999999' 
WAVCIS,ioos:station:WAVCIS:CSI16:1,2009-07-01T11:00:00Z,29.4012,-89.0355,11.36,341.0,0.1,-99999.0,'11133222,11111222,99999999' 
WAVCIS,ioos:station:WAVCIS:CSI16:1,2009-07-01T12:00:00Z,29.4012,-89.0355,11.36,319.0,0.084,-99999.0,'11133222,11111222,99999999' 
WAVCIS,ioos:station:WAVCIS:CSI16:1,2009-07-01T13:00:00Z,29.4012,-89.0355,11.36,304.0,0.088,-99999.0,'11133222,11111222,99999999' 
WAVCIS,ioos:station:WAVCIS:CSI16:1,2009-07-01T14:00:00Z,29.4012,-89.0355,11.36,287.0,0.141,-99999.0,'11133222,11111222,99999999' 
WAVCIS,ioos:station:WAVCIS:CSI16:1,2009-07-01T15:00:00Z,29.4012,-89.0355,11.36,271.0,0.089,-99999.0,'11133222,11111222,99999999' 
WAVCIS,ioos:station:WAVCIS:CSI16:1,2009-07-01T16:00:00Z,29.4012,-89.0355,11.36,250.0,0.109,-99999.0,'11133222,11111222,99999999' 
WAVCIS,ioos:station:WAVCIS:CSI16:1,2009-07-01T17:00:00Z,29.4012,-89.0355,11.36,248.0,0.131,-99999.0,'11133222,11111222,99999999' 
WAVCIS,ioos:station:WAVCIS:CSI16:1,2009-07-01T18:00:00Z,29.4012,-89.0355,11.36,266.0,0.203,-99999.0,'11133222,11111222,99999999' 
WAVCIS,ioos:station:WAVCIS:CSI16:1,2009-07-01T19:00:00Z,29.4012,-89.0355,11.36,266.0,0.251,-99999.0,'11133222,11111222,99999999' 
WAVCIS,ioos:station:WAVCIS:CSI16:1,2009-07-01T20:00:00Z,29.4012,-89.0355,10.86,270.0,0.147,-99999.0,'11133222,11111222,99999999' 
WAVCIS,ioos:station:WAVCIS:CSI16:1,2009-07-01T21:00:00Z,29.4012,-89.0355,10.86,243.0,0.133,-99999.0,'11133222,11111222,99999999' 
WAVCIS,ioos:station:WAVCIS:CSI16:1,2009-07-01T22:00:00Z,29.4012,-89.0355,10.86,259.0,0.17,-99999.0,'11133222,11111222,99999999' 
WAVCIS,ioos:station:WAVCIS:CSI16:1,2009-07-01T23:00:00Z,29.4012,-89.0355,10.86,301.0,0.161,-99999.0,'11133222,11111222,99999999' 
WAVCIS,ioos:station:WAVCIS:CSI16:1,2009-07-02T00:00:00Z,29.4012,-89.0355,10.86,312.0,0.13,-99999.0,'11133222,11111222,99999999' 
WAVCIS,ioos:station:WAVCIS:CSI16:1,2009-07-02T01:00:00Z,29.4012,-89.0355,11.36,51.0,0.168,-99999.0,'11133222,11111222,99999999' 
WAVCIS,ioos:station:WAVCIS:CSI16:1,2009-07-02T02:00:00Z,29.4012,-89.0355,11.36,65.0,0.23,-99999.0,'11133222,11111222,99999999' 
WAVCIS,ioos:station:WAVCIS:CSI16:1,2009-07-02T03:00:00Z,29.4012,-89.0355,10.86,71.0,0.057,-99999.0,'11133222,11111222,99999999' 
WAVCIS,ioos:station:WAVCIS:CSI16:1,2009-07-02T04:00:00Z,29.4012,-89.0355,11.36,65.0,0.149,-99999.0,'11133222,11111222,99999999' 
WAVCIS,ioos:station:WAVCIS:CSI16:1,2009-07-02T05:00:00Z,29.4012,-89.0355,11.36,99.0,0.02,-99999.0,'11133222,11111222,99999999' 
WAVCIS,ioos:station:WAVCIS:CSI16:1,2009-07-02T06:00:00Z,29.4012,-89.0355,11.36,190.0,0.057,-99999.0,'11133222,11111222,99999999' 
WAVCIS,ioos:station:WAVCIS:CSI16:1,2009-07-02T07:00:00Z,29.4012,-89.0355,11.36,204.0,0.049,-99999.0,'11133222,11111222,99999999' 
WAVCIS,ioos:station:WAVCIS:CSI16:1,2009-07-02T08:00:00Z,29.4012,-89.0355,11.36,248.0,0.024,-99999.0,'11133222,11111222,99999999' 
WAVCIS,ioos:station:WAVCIS:CSI16:1,2009-07-02T09:00:00Z,29.4012,-89.0355,11.36,103.0,0.044,-99999.0,'11133222,11111222,99999999' 
WAVCIS,ioos:station:WAVCIS:CSI16:1,2009-07-02T10:00:00Z,29.4012,-89.0355,11.36,144.0,0.087,-99999.0,'11133222,11111222,99999999' 
WAVCIS,ioos:station:WAVCIS:CSI16:1,2009-07-02T11:00:00Z,29.4012,-89.0355,11.36,159.0,0.092,-99999.0,'11133222,11111222,99999999' 
WAVCIS,ioos:station:WAVCIS:CSI16:1,2009-07-02T12:00:00Z,29.4012,-89.0355,11.36,155.0,0.133,-99999.0,'11133222,11111222,99999999' 
WAVCIS,ioos:station:WAVCIS:CSI16:1,2009-07-02T13:00:00Z,29.4012,-89.0355,11.36,165.0,0.099,-99999.0,'11133222,11111222,99999999' 
WAVCIS,ioos:station:WAVCIS:CSI16:1,2009-07-02T14:00:00Z,29.4012,-89.0355,11.36,163.0,0.193,-99999.0,'11133222,11111222,99999999' 
WAVCIS,ioos:station:WAVCIS:CSI16:1,2009-07-02T15:00:00Z,29.4012,-89.0355,11.36,157.0,0.304,-99999.0,'11133222,11111222,99999999' 
WAVCIS,ioos:station:WAVCIS:CSI16:1,2009-07-02T16:00:00Z,29.4012,-89.0355,11.36,215.0,0.234,-99999.0,'11133222,11111222,99999999' 
WAVCIS,ioos:station:WAVCIS:CSI16:1,2009-07-02T17:00:00Z,29.4012,-89.0355,11.36,254.0,0.229,-99999.0,'11133222,11111222,99999999' 
WAVCIS,ioos:station:WAVCIS:CSI16:1,2009-07-02T18:00:00Z,29.4012,-89.0355,11.36,245.0,0.383,-99999.0,'11133222,11111222,99999999' 
WAVCIS,ioos:station:WAVCIS:CSI16:1,2009-07-02T19:00:00Z,29.4012,-89.0355,10.86,214.0,0.27,-99999.0,'11133222,11111222,99999999' 
WAVCIS,ioos:station:WAVCIS:CSI16:1,2009-07-02T20:00:00Z,29.4012,-89.0355,10.86,224.0,0.175,-99999.0,'11133222,11111222,99999999' 
WAVCIS,ioos:station:WAVCIS:CSI16:1,2009-07-02T21:00:00Z,29.4012,-89.0355,10.86,239.0,0.331,-99999.0,'11133222,11111222,99999999' 
WAVCIS,ioos:station:WAVCIS:CSI16:1,2009-07-02T22:00:00Z,29.4012,-89.0355,10.86,229.0,0.298,-99999.0,'11133222,11111222,99999999' 
WAVCIS,ioos:station:WAVCIS:CSI16:1,2009-07-02T23:00:00Z,29.4012,-89.0355,10.86,254.0,0.207,-99999.0,'11133222,11111222,99999999' 
WAVCIS,ioos:station:WAVCIS:CSI16:1,2009-07-03T00:00:00Z,29.4012,-89.0355,10.86,258.0,0.063,-99999.0,'11133222,11111222,99999999' 
WAVCIS,ioos:station:WAVCIS:CSI16:1,2009-07-03T01:00:00Z,29.4012,-89.0355,10.86,290.0,0.096,-99999.0,'11133222,11111222,99999999' 
WAVCIS,ioos:station:WAVCIS:CSI16:1,2009-07-03T02:00:00Z,29.4012,-89.0355,10.86,255.0,0.082,-99999.0,'11133222,11111222,99999999' 
WAVCIS,ioos:station:WAVCIS:CSI16:1,2009-07-03T03:00:00Z,29.4012,-89.0355,11.36,224.0,0.15,-99999.0,'11133222,11111222,99999999' 
WAVCIS,ioos:station:WAVCIS:CSI16:1,2009-07-03T04:00:00Z,29.4012,-89.0355,11.36,195.0,0.147,-99999.0,'11133222,11111222,99999999' 
WAVCIS,ioos:station:WAVCIS:CSI16:1,2009-07-03T05:00:00Z,29.4012,-89.0355,11.36,163.0,0.171,-99999.0,'11133222,11111222,99999999' 
WAVCIS,ioos:station:WAVCIS:CSI16:1,2009-07-03T06:00:00Z,29.4012,-89.0355,11.36,151.0,0.244,-99999.0,'11133222,11111222,99999999' 
WAVCIS,ioos:station:WAVCIS:CSI16:1,2009-07-03T07:00:00Z,29.4012,-89.0355,11.36,141.0,0.337,-99999.0,'11133222,11111222,99999999' 
WAVCIS,ioos:station:WAVCIS:CSI16:1,2009-07-03T08:00:00Z,29.4012,-89.0355,11.36,163.0,0.289,-99999.0,'11133222,11111222,99999999' 
WAVCIS,ioos:station:WAVCIS:CSI16:1,2009-07-03T09:00:00Z,29.4012,-89.0355,11.36,171.0,0.134,-99999.0,'11133222,11111222,99999999' 
WAVCIS,ioos:station:WAVCIS:CSI16:1,2009-07-03T10:00:00Z,29.4012,-89.0355,11.36,184.0,0.218,-99999.0,'11133222,11111222,99999999' 
WAVCIS,ioos:station:WAVCIS:CSI16:1,2009-07-03T11:00:00Z,29.4012,-89.0355,11.36,203.0,0.287,-99999.0,'11133222,11111222,99999999' 
WAVCIS,ioos:station:WAVCIS:CSI16:1,2009-07-03T12:00:00Z,29.4012,-89.0355,11.36,205.0,0.306,-99999.0,'11133222,11111222,99999999' 
WAVCIS,ioos:station:WAVCIS:CSI16:1,2009-07-03T13:00:00Z,29.4012,-89.0355,11.36,192.0,0.205,-99999.0,'11133222,11111222,99999999' 
WAVCIS,ioos:station:WAVCIS:CSI16:1,2009-07-03T14:00:00Z,29.4012,-89.0355,11.36,196.0,0.327,-99999.0,'11133222,11111222,99999999' 
WAVCIS,ioos:station:WAVCIS:CSI16:1,2009-07-03T15:00:00Z,29.4012,-89.0355,11.36,205.0,0.424,-99999.0,'11133222,11111222,99999999' 
WAVCIS,ioos:station:WAVCIS:CSI16:1,2009-07-03T16:00:00Z,29.4012,-89.0355,11.36,210.0,0.606,-99999.0,'11133222,11111222,99999999' 
WAVCIS,ioos:station:WAVCIS:CSI16:1,2009-07-03T17:00:00Z,29.4012,-89.0355,11.36,219.0,0.722,-99999.0,'11133222,11111222,99999999' 
WAVCIS,ioos:station:WAVCIS:CSI16:1,2009-07-03T18:00:00Z,29.4012,-89.0355,11.36,218.0,0.652,-99999.0,'11133222,11111222,99999999' 
WAVCIS,ioos:station:WAVCIS:CSI16:1,2009-07-03T19:00:00Z,29.4012,-89.0355,10.86,211.0,0.504,-99999.0,'11133222,11111222,99999999' 
WAVCIS,ioos:station:WAVCIS:CSI16:1,2009-07-03T20:00:00Z,29.4012,-89.0355,10.86,225.0,0.391,-99999.0,'11133222,11111222,99999999' 
WAVCIS,ioos:station:WAVCIS:CSI16:1,2009-07-03T21:00:00Z,29.4012,-89.0355,10.86,245.0,0.448,-99999.0,'11133222,11111222,99999999' 
WAVCIS,ioos:station:WAVCIS:CSI16:1,2009-07-03T22:00:00Z,29.4012,-89.0355,10.86,268.0,0.437,-99999.0,'11133222,11111222,99999999' 
WAVCIS,ioos:station:WAVCIS:CSI16:1,2009-07-03T23:00:00Z,29.4012,-89.0355,10.86,270.0,0.462,-99999.0,'11133222,11111222,99999999' 
WAVCIS,ioos:station:WAVCIS:CSI16:1,2009-07-04T00:00:00Z,29.4012,-89.0355,10.86,264.0,0.124,-99999.0,'11133222,11111222,99999999' 
WAVCIS,ioos:station:WAVCIS:CSI16:1,2009-07-04T01:00:00Z,29.4012,-89.0355,10.86,196.0,0.07,-99999.0,'11133222,11111222,99999999' 
WAVCIS,ioos:station:WAVCIS:CSI16:1,2009-07-04T02:00:00Z,29.4012,-89.0355,10.86,208.0,0.015,-99999.0,'11133222,11111222,99999999' 
WAVCIS,ioos:station:WAVCIS:CSI16:1,2009-07-04T03:00:00Z,29.4012,-89.0355,10.86,347.0,0.068,-99999.0,'11133222,11111222,99999999' 
WAVCIS,ioos:station:WAVCIS:CSI16:1,2009-07-04T04:00:00Z,29.4012,-89.0355,11.36,61.0,0.09,-99999.0,'11133222,11111222,99999999' 
WAVCIS,ioos:station:WAVCIS:CSI16:1,2009-07-04T05:00:00Z,29.4012,-89.0355,11.36,126.0,0.107,-99999.0,'11133222,11111222,99999999' 
WAVCIS,ioos:station:WAVCIS:CSI16:1,2009-07-04T06:00:00Z,29.4012,-89.0355,11.36,157.0,0.146,-99999.0,'11133222,11111222,99999999' 
WAVCIS,ioos:station:WAVCIS:CSI16:1,2009-07-04T07:00:00Z,29.4012,-89.0355,11.36,159.0,0.111,-99999.0,'11133222,11111222,99999999' 
WAVCIS,ioos:station:WAVCIS:CSI16:1,2009-07-04T08:00:00Z,29.4012,-89.0355,11.36,166.0,0.116,-99999.0,'11133222,11111222,99999999' 
WAVCIS,ioos:station:WAVCIS:CSI16:1,2009-07-04T09:00:00Z,29.4012,-89.0355,11.36,211.0,0.171,-99999.0,'11133222,11111222,99999999' 
WAVCIS,ioos:station:WAVCIS:CSI16:1,2009-07-04T10:00:00Z,29.4012,-89.0355,11.36,147.0,0.082,-99999.0,'11133222,11111222,99999999' 
WAVCIS,ioos:station:WAVCIS:CSI16:1,2009-07-04T11:00:00Z,29.4012,-89.0355,11.36,24.0,0.11,-99999.0,'11133222,11111222,99999999' 
WAVCIS,ioos:station:WAVCIS:CSI16:1,2009-07-04T12:00:00Z,29.4012,-89.0355,11.36,19.0,0.093,-99999.0,'11133222,11111222,99999999' 
WAVCIS,ioos:station:WAVCIS:CSI16:1,2009-07-04T13:00:00Z,29.4012,-89.0355,11.86,238.0,0.19,-99999.0,'11133222,11111222,99999999' 
WAVCIS,ioos:station:WAVCIS:CSI16:1,2009-07-04T14:00:00Z,29.4012,-89.0355,11.36,226.0,0.379,-99999.0,'11133222,11111222,99999999' 
WAVCIS,ioos:station:WAVCIS:CSI16:1,2009-07-04T15:00:00Z,29.4012,-89.0355,11.36,219.0,0.351,-99999.0,'11133222,11111222,99999999' 
WAVCIS,ioos:station:WAVCIS:CSI16:1,2009-07-04T16:00:00Z,29.4012,-89.0355,11.36,170.0,0.274,-99999.0,'11133222,11111222,99999999' 
WAVCIS,ioos:station:WAVCIS:CSI16:1,2009-07-04T17:00:00Z,29.4012,-89.0355,11.36,215.0,0.87,-99999.0,'11133222,11111222,99999999' 
WAVCIS,ioos:station:WAVCIS:CSI16:1,2009-07-04T18:00:00Z,29.4012,-89.0355,11.36,225.0,0.881,-99999.0,'11133222,11111222,99999999' 
WAVCIS,ioos:station:WAVCIS:CSI16:1,2009-07-04T19:00:00Z,29.4012,-89.0355,11.36,225.0,0.716,-99999.0,'11133222,11111222,99999999' 
WAVCIS,ioos:station:WAVCIS:CSI16:1,2009-07-04T20:00:00Z,29.4012,-89.0355,10.86,222.0,0.61,-99999.0,'11133222,11111222,99999999' 
WAVCIS,ioos:station:WAVCIS:CSI16:1,2009-07-04T21:00:00Z,29.4012,-89.0355,10.86,245.0,0.433,-99999.0,'11133222,11111222,99999999' 
WAVCIS,ioos:station:WAVCIS:CSI16:1,2009-07-04T22:00:00Z,29.4012,-89.0355,10.86,255.0,0.381,-99999.0,'11133222,11111222,99999999' 
WAVCIS,ioos:station:WAVCIS:CSI16:1,2009-07-04T23:00:00Z,29.4012,-89.0355,10.86,264.0,0.394,-99999.0,'11133222,11111222,99999999' 
WAVCIS,ioos:station:WAVCIS:CSI16:1,2009-07-05T00:00:00Z,29.4012,-89.0355,10.86,283.0,0.323,-99999.0,'11133222,11111222,99999999' 
WAVCIS,ioos:station:WAVCIS:CSI16:1,2009-07-05T01:00:00Z,29.4012,-89.0355,10.86,315.0,0.083,-99999.0,'11133222,11111222,99999999' 
WAVCIS,ioos:station:WAVCIS:CSI16:1,2009-07-05T02:00:00Z,29.4012,-89.0355,10.86,358.0,0.158,-99999.0,'11133222,11111222,99999999' 
WAVCIS,ioos:station:WAVCIS:CSI16:1,2009-07-05T03:00:00Z,29.4012,-89.0355,10.86,22.0,0.041,-99999.0,'11133222,11111222,99999999' 
WAVCIS,ioos:station:WAVCIS:CSI16:1,2009-07-05T04:00:00Z,29.4012,-89.0355,11.36,72.0,0.062,-99999.0,'11133222,11111222,99999999' 
WAVCIS,ioos:station:WAVCIS:CSI16:1,2009-07-05T05:00:00Z,29.4012,-89.0355,11.36,93.0,0.177,-99999.0,'11133222,11111222,99999999' 
WAVCIS,ioos:station:WAVCIS:CSI16:1,2009-07-05T06:00:00Z,29.4012,-89.0355,11.36,91.0,0.275,-99999.0,'11133222,11111222,99999999' 
WAVCIS,ioos:station:WAVCIS:CSI16:1,2009-07-05T07:00:00Z,29.4012,-89.0355,11.36,88.0,0.18,-99999.0,'11133222,11111222,99999999' 
WAVCIS,ioos:station:WAVCIS:CSI16:1,2009-07-05T08:00:00Z,29.4012,-89.0355,11.36,130.0,0.16,-99999.0,'11133222,11111222,99999999' 
WAVCIS,ioos:station:WAVCIS:CSI16:1,2009-07-05T09:00:00Z,29.4012,-89.0355,11.36,151.0,0.132,-99999.0,'11133222,11111222,99999999' 
WAVCIS,ioos:station:WAVCIS:CSI16:1,2009-07-05T10:00:00Z,29.4012,-89.0355,11.36,189.0,0.299,-99999.0,'11133222,11111222,99999999' 
WAVCIS,ioos:station:WAVCIS:CSI16:1,2009-07-05T11:00:00Z,29.4012,-89.0355,11.36,207.0,0.181,-99999.0,'11133222,11111222,99999999' 
WAVCIS,ioos:station:WAVCIS:CSI16:1,2009-07-05T12:00:00Z,29.4012,-89.0355,11.36,208.0,0.227,-99999.0,'11133222,11111222,99999999' 
WAVCIS,ioos:station:WAVCIS:CSI16:1,2009-07-05T13:00:00Z,29.4012,-89.0355,11.36,207.0,0.198,-99999.0,'11133222,11111222,99999999' 
WAVCIS,ioos:station:WAVCIS:CSI16:1,2009-07-05T14:00:00Z,29.4012,-89.0355,11.36,215.0,0.373,-99999.0,'11133222,11111222,99999999' 
WAVCIS,ioos:station:WAVCIS:CSI16:1,2009-07-05T15:00:00Z,29.4012,-89.0355,11.36,199.0,0.22,-99999.0,'11133222,11111222,99999999' 
WAVCIS,ioos:station:WAVCIS:CSI16:1,2009-07-05T16:00:00Z,29.4012,-89.0355,11.36,212.0,0.417,-99999.0,'11133222,11111222,99999999' 
WAVCIS,ioos:station:WAVCIS:CSI16:1,2009-07-05T17:00:00Z,29.4012,-89.0355,11.36,207.0,0.685,-99999.0,'11133222,11111222,99999999' 
WAVCIS,ioos:station:WAVCIS:CSI16:1,2009-07-05T18:00:00Z,29.4012,-89.0355,11.36,214.0,0.676,-99999.0,'11133222,11111222,99999999' 
WAVCIS,ioos:station:WAVCIS:CSI16:1,2009-07-05T19:00:00Z,29.4012,-89.0355,11.36,214.0,0.645,-99999.0,'11133222,11111222,99999999' 
WAVCIS,ioos:station:WAVCIS:CSI16:1,2009-07-05T20:00:00Z,29.4012,-89.0355,10.86,229.0,0.58,-99999.0,'11133222,11111222,99999999' 
WAVCIS,ioos:station:WAVCIS:CSI16:1,2009-07-05T21:00:00Z,29.4012,-89.0355,10.86,229.0,0.873,-99999.0,'11133222,11111222,99999999' 
WAVCIS,ioos:station:WAVCIS:CSI16:1,2009-07-05T22:00:00Z,29.4012,-89.0355,10.86,233.0,0.747,-99999.0,'11133222,11111222,99999999' 
WAVCIS,ioos:station:WAVCIS:CSI16:1,2009-07-05T23:00:00Z,29.4012,-89.0355,10.86,235.0,0.413,-99999.0,'11133222,11111222,99999999' 
WAVCIS,ioos:station:WAVCIS:CSI16:1,2009-07-06T00:00:00Z,29.4012,-89.0355,10.86,243.0,0.284,-99999.0,'11133222,11111222,99999999' 
WAVCIS,ioos:station:WAVCIS:CSI16:1,2009-07-06T01:00:00Z,29.4012,-89.0355,10.86,271.0,0.307,-99999.0,'11133222,11111222,99999999' 
WAVCIS,ioos:station:WAVCIS:CSI16:1,2009-07-06T02:00:00Z,29.4012,-89.0355,10.86,266.0,0.094,-99999.0,'11133222,11111222,99999999' 
WAVCIS,ioos:station:WAVCIS:CSI16:1,2009-07-06T03:00:00Z,29.4012,-89.0355,10.86,234.0,0.049,-99999.0,'11133222,11111222,99999999' 
WAVCIS,ioos:station:WAVCIS:CSI16:1,2009-07-06T04:00:00Z,29.4012,-89.0355,10.86,196.0,0.125,-99999.0,'11133222,11111222,99999999' 
WAVCIS,ioos:station:WAVCIS:CSI16:1,2009-07-06T05:00:00Z,29.4012,-89.0355,10.86,163.0,0.052,-99999.0,'11133222,11111222,99999999' 
WAVCIS,ioos:station:WAVCIS:CSI16:1,2009-07-06T06:00:00Z,29.4012,-89.0355,11.36,170.0,0.191,-99999.0,'11133222,11111222,99999999' 
WAVCIS,ioos:station:WAVCIS:CSI16:1,2009-07-06T07:00:00Z,29.4012,-89.0355,11.36,178.0,0.356,-99999.0,'11133222,11111222,99999999' 
WAVCIS,ioos:station:WAVCIS:CSI16:1,2009-07-06T08:00:00Z,29.4012,-89.0355,11.36,195.0,0.422,-99999.0,'11133222,11111222,99999999' 
WAVCIS,ioos:station:WAVCIS:CSI16:1,2009-07-06T09:00:00Z,29.4012,-89.0355,11.36,196.0,0.433,-99999.0,'11133222,11111222,99999999' 
WAVCIS,ioos:station:WAVCIS:CSI16:1,2009-07-06T10:00:00Z,29.4012,-89.0355,11.36,197.0,0.379,-99999.0,'11133222,11111222,99999999' 
WAVCIS,ioos:station:WAVCIS:CSI16:1,2009-07-06T11:00:00Z,29.4012,-89.0355,11.36,209.0,0.435,-99999.0,'11133222,11111222,99999999' 
WAVCIS,ioos:station:WAVCIS:CSI16:1,2009-07-06T12:00:00Z,29.4012,-89.0355,11.36,216.0,0.524,-99999.0,'11133222,11111222,99999999' 
WAVCIS,ioos:station:WAVCIS:CSI16:1,2009-07-06T13:00:00Z,29.4012,-89.0355,11.36,189.0,0.157,-99999.0,'11133222,11111222,99999999' 
WAVCIS,ioos:station:WAVCIS:CSI16:1,2009-07-06T14:00:00Z,29.4012,-89.0355,11.36,194.0,0.268,-99999.0,'11133222,11111222,99999999' 
WAVCIS,ioos:station:WAVCIS:CSI16:1,2009-07-06T15:00:00Z,29.4012,-89.0355,11.36,209.0,0.509,-99999.0,'11133222,11111222,99999999' 
WAVCIS,ioos:station:WAVCIS:CSI16:1,2009-07-06T16:00:00Z,29.4012,-89.0355,11.36,197.0,0.346,-99999.0,'11133222,11111222,99999999' 
WAVCIS,ioos:station:WAVCIS:CSI16:1,2009-07-06T17:00:00Z,29.4012,-89.0355,11.36,204.0,0.575,-99999.0,'11133222,11111222,99999999' 
WAVCIS,ioos:station:WAVCIS:CSI16:1,2009-07-06T18:00:00Z,29.4012,-89.0355,11.36,217.0,0.666,-99999.0,'11133222,11111222,99999999' 
WAVCIS,ioos:station:WAVCIS:CSI16:1,2009-07-06T19:00:00Z,29.4012,-89.0355,11.36,226.0,0.712,-99999.0,'11133222,11111222,99999999' 
WAVCIS,ioos:station:WAVCIS:CSI16:1,2009-07-06T20:00:00Z,29.4012,-89.0355,10.86,245.0,0.466,-99999.0,'11133222,11111222,99999999' 
WAVCIS,ioos:station:WAVCIS:CSI16:1,2009-07-06T21:00:00Z,29.4012,-89.0355,10.86,251.0,0.578,-99999.0,'11133222,11111222,99999999' 
WAVCIS,ioos:station:WAVCIS:CSI16:1,2009-07-06T22:00:00Z,29.4012,-89.0355,10.86,247.0,0.532,-99999.0,'11133222,11111222,99999999' 
WAVCIS,ioos:station:WAVCIS:CSI16:1,2009-07-06T23:00:00Z,29.4012,-89.0355,10.86,235.0,0.286,-99999.0,'11133222,11111222,99999999' 
WAVCIS,ioos:station:WAVCIS:CSI16:1,2009-07-07T00:00:00Z,29.4012,-89.0355,10.86,215.0,0.14,-99999.0,'11133222,11111222,99999999' 
WAVCIS,ioos:station:WAVCIS:CSI16:1,2009-07-07T01:00:00Z,29.4012,-89.0355,10.86,193.0,0.049,-99999.0,'11133222,11111222,99999999' 
WAVCIS,ioos:station:WAVCIS:CSI16:1,2009-07-07T02:00:00Z,29.4012,-89.0355,10.86,140.0,0.082,-99999.0,'11133222,11111222,99999999' 
WAVCIS,ioos:station:WAVCIS:CSI16:1,2009-07-07T03:00:00Z,29.4012,-89.0355,10.86,160.0,0.116,-99999.0,'11133222,11111222,99999999' 
WAVCIS,ioos:station:WAVCIS:CSI16:1,2009-07-07T04:00:00Z,29.4012,-89.0355,10.86,97.0,0.158,-99999.0,'11133222,11111222,99999999' 
WAVCIS,ioos:station:WAVCIS:CSI16:1,2009-07-07T05:00:00Z,29.4012,-89.0355,10.86,159.0,0.198,-99999.0,'11133222,11111222,99999999' 
WAVCIS,ioos:station:WAVCIS:CSI16:1,2009-07-07T06:00:00Z,29.4012,-89.0355,10.86,126.0,0.15,-99999.0,'11133222,11111222,99999999' 
WAVCIS,ioos:station:WAVCIS:CSI16:1,2009-07-07T07:00:00Z,29.4012,-89.0355,10.86,70.0,0.156,-99999.0,'11133222,11111222,99999999' 
WAVCIS,ioos:station:WAVCIS:CSI16:1,2009-07-07T08:00:00Z,29.4012,-89.0355,11.36,131.0,0.058,-99999.0,'11133222,11111222,99999999' 
WAVCIS,ioos:station:WAVCIS:CSI16:1,2009-07-07T09:00:00Z,29.4012,-89.0355,11.36,203.0,0.159,-99999.0,'11133222,11111222,99999999' 
WAVCIS,ioos:station:WAVCIS:CSI16:1,2009-07-07T10:00:00Z,29.4012,-89.0355,11.36,200.0,0.159,-99999.0,'11133222,11111222,99999999' 
WAVCIS,ioos:station:WAVCIS:CSI16:1,2009-07-07T11:00:00Z,29.4012,-89.0355,11.36,205.0,0.205,-99999.0,'11133222,11111222,99999999' 
WAVCIS,ioos:station:WAVCIS:CSI16:1,2009-07-07T12:00:00Z,29.4012,-89.0355,11.36,180.0,0.106,-99999.0,'11133222,11111222,99999999' 
WAVCIS,ioos:station:WAVCIS:CSI16:1,2009-07-07T13:00:00Z,29.4012,-89.0355,11.36,215.0,0.258,-99999.0,'11133222,11111222,99999999' 
WAVCIS,ioos:station:WAVCIS:CSI16:1,2009-07-07T14:00:00Z,29.4012,-89.0355,11.36,235.0,0.355,-99999.0,'11133222,11111222,99999999' 
WAVCIS,ioos:station:WAVCIS:CSI16:1,2009-07-07T15:00:00Z,29.4012,-89.0355,11.36,213.0,0.272,-99999.0,'11133222,11111222,99999999' 
WAVCIS,ioos:station:WAVCIS:CSI16:1,2009-07-07T16:00:00Z,29.4012,-89.0355,11.36,242.0,0.407,-99999.0,'11133222,11111222,99999999' 
WAVCIS,ioos:station:WAVCIS:CSI16:1,2009-07-07T17:00:00Z,29.4012,-89.0355,11.36,220.0,0.25,-99999.0,'11133222,11111222,99999999' 
WAVCIS,ioos:station:WAVCIS:CSI16:1,2009-07-07T18:00:00Z,29.4012,-89.0355,11.36,207.0,0.165,-99999.0,'11133222,11111222,99999999' 
WAVCIS,ioos:station:WAVCIS:CSI16:1,2009-07-07T19:00:00Z,29.4012,-89.0355,11.36,194.0,0.249,-99999.0,'11133222,11111222,99999999' 
WAVCIS,ioos:station:WAVCIS:CSI16:1,2009-07-07T20:00:00Z,29.4012,-89.0355,11.36,181.0,0.171,-99999.0,'11133222,11111222,99999999' 
WAVCIS,ioos:station:WAVCIS:CSI16:1,2009-07-07T21:00:00Z,29.4012,-89.0355,11.36,179.0,0.207,-99999.0,'11133222,11111222,99999999' 
WAVCIS,ioos:station:WAVCIS:CSI16:1,2009-07-07T22:00:00Z,29.4012,-89.0355,10.86,221.0,0.323,-99999.0,'11133222,11111222,99999999' 
WAVCIS,ioos:station:WAVCIS:CSI16:1,2009-07-07T23:00:00Z,29.4012,-89.0355,10.86,245.0,0.365,-99999.0,'11133222,11111222,99999999' 
WAVCIS,ioos:station:WAVCIS:CSI16:1,2009-07-08T00:00:00Z,29.4012,-89.0355,10.86,236.0,0.512,-99999.0,'11133222,11111222,99999999' 
WAVCIS,ioos:station:WAVCIS:CSI16:1,2009-07-08T01:00:00Z,29.4012,-89.0355,10.86,228.0,0.294,-99999.0,'11133222,11111222,99999999' 
WAVCIS,ioos:station:WAVCIS:CSI16:1,2009-07-08T02:00:00Z,29.4012,-89.0355,10.86,182.0,0.192,-99999.0,'11133222,11111222,99999999' 
WAVCIS,ioos:station:WAVCIS:CSI16:1,2009-07-08T03:00:00Z,29.4012,-89.0355,10.86,159.0,0.128,-99999.0,'11133222,11111222,99999999' 
WAVCIS,ioos:station:WAVCIS:CSI16:1,2009-07-08T04:00:00Z,29.4012,-89.0355,10.86,133.0,0.05,-99999.0,'11133222,11111222,99999999' 
WAVCIS,ioos:station:WAVCIS:CSI16:1,2009-07-08T05:00:00Z,29.4012,-89.0355,10.86,162.0,0.116,-99999.0,'11133222,11111222,99999999' 
WAVCIS,ioos:station:WAVCIS:CSI16:1,2009-07-08T06:00:00Z,29.4012,-89.0355,10.86,140.0,0.077,-99999.0,'11133222,11111222,99999999' 
WAVCIS,ioos:station:WAVCIS:CSI16:1,2009-07-08T07:00:00Z,29.4012,-89.0355,10.86,170.0,0.174,-99999.0,'11133222,11111222,99999999' 
WAVCIS,ioos:station:WAVCIS:CSI16:1,2009-07-08T08:00:00Z,29.4012,-89.0355,11.36,166.0,0.169,-99999.0,'11133222,11111222,99999999' 
WAVCIS,ioos:station:WAVCIS:CSI16:1,2009-07-08T09:00:00Z,29.4012,-89.0355,11.36,99.0,0.079,-99999.0,'11133222,11111222,99999999' 
WAVCIS,ioos:station:WAVCIS:CSI16:1,2009-07-08T10:00:00Z,29.4012,-89.0355,11.36,165.0,0.188,-99999.0,'11133222,11111222,99999999' 
WAVCIS,ioos:station:WAVCIS:CSI16:1,2009-07-08T11:00:00Z,29.4012,-89.0355,11.36,160.0,0.313,-99999.0,'11133222,11111222,99999999' 
WAVCIS,ioos:station:WAVCIS:CSI16:1,2009-07-08T12:00:00Z,29.4012,-89.0355,11.36,208.0,0.198,-99999.0,'11133222,11111222,99999999' 
WAVCIS,ioos:station:WAVCIS:CSI16:1,2009-07-08T13:00:00Z,29.4012,-89.0355,11.36,207.0,0.246,-99999.0,'11133222,11111222,99999999' 
WAVCIS,ioos:station:WAVCIS:CSI16:1,2009-07-08T14:00:00Z,29.4012,-89.0355,11.36,218.0,0.529,-99999.0,'11133222,11111222,99999999' 